Clinton, MO

10:17 AM CST on December 10, 2019 (GMT -0600)
Clinton Memorial

Weather History for KGLY - November, 2019

Change the Weather History Date:

Wednesday, November 13, 2019

  Actual Average (KSZL) Record (KSZL)
Temperature  
Mean Temperature 30 °F -  
Max Temperature 44 °F 53 °F 82 °F (1999)
Min Temperature 17 °F 36 °F 11 °F (2018)
Degree Days  
Heating Degree Days 34    
Moisture  
Dew Point 16 °F    
Average Humidity 56    
Maximum Humidity 80    
Minimum Humidity 31    
Precipitation  
Precipitation 0.00 in - - ()
Sea Level Pressure  
Sea Level Pressure 30.12 in    
Wind  
Wind Speed 9 mph (SSW)    
Max Wind Speed 16 mph    
Max Gust Speed 23 mph    
Visibility 10 miles    
Events Snow    
Averages and records for this station are not official NWS values.
T = Trace of Precipitation, MM = Missing Value Source: NWS Daily Summary

Daily Weather History Graph

Daily Weather History Graph

Search for Another Location

Airport or City:

Astronomy

Nov. 13, 2019 Rise Set
Actual Time 6:53 AM CST 5:03 PM CST
Civil Twilight 6:25 AM CST 5:31 PM CST
Nautical Twilight 5:53 AM CST 6:03 PM CST
Astronomical Twilight 5:22 AM CST 6:34 PM CST
Moon 6:07 PM CST (11/13) 7:47 AM CST (11/13)
Length of Visible Light 11h 06m
Length of Day
10h 09m
Full, 99% of the Moon is Illuminated
Nov 13
Full
Nov 19
Last Quarter
Nov 26
New
Dec 4
First Quarter
Dec 11
Full

Hourly Weather History & Observations

Time (CST) Temp. Windchill Dew Point Humidity Pressure Visibility Wind Dir Wind Speed Gust Speed Precip Events Conditions
12:15 AM 19.4 °F - 10.4 °F 68% 30.29 in 10.0 mi North - - N/A   Clear
12:35 AM 17.6 °F - 12.2 °F 79% 30.28 in 10.0 mi North - - N/A   Clear
12:55 AM 17.6 °F - 12.2 °F 79% 30.26 in 10.0 mi North - - N/A Snow Light Snow
1:15 AM 17.6 °F - 12.2 °F 79% 30.25 in 10.0 mi North - - N/A Snow Light Snow
1:55 AM 17.6 °F - 12.2 °F 79% 30.25 in 10.0 mi North - - N/A Snow Light Snow
2:35 AM 17.6 °F - 12.2 °F 79% 30.24 in 10.0 mi North - - N/A Snow Light Snow
2:55 AM 19.4 °F - 14.0 °F 80% 30.23 in 10.0 mi North - - N/A Snow Light Snow
3:55 AM 19.4 °F - 14.0 °F 80% 30.19 in 10.0 mi North - - N/A Snow Light Snow
4:15 AM 19.4 °F - 14.0 °F 80% 30.19 in 10.0 mi North - - N/A   Clear
4:35 AM 19.4 °F - 14.0 °F 80% 30.19 in 10.0 mi North - - N/A   Clear
5:15 AM 19.4 °F - 14.0 °F 80% 30.17 in 10.0 mi North - - N/A Snow Light Snow
5:35 AM 19.4 °F - 14.0 °F 80% 30.16 in 10.0 mi North - - N/A Snow Light Snow
5:55 AM 19.4 °F - 14.0 °F 80% 30.16 in 10.0 mi North - - N/A Snow Light Snow
6:35 AM 19.4 °F - 14.0 °F 80% 30.16 in 10.0 mi North - - N/A   Clear
6:55 AM 19.4 °F - 14.0 °F 80% 30.15 in 10.0 mi North - - N/A Snow Light Snow
7:15 AM 23.0 °F - 14.0 °F 68% 30.14 in 10.0 mi North - - N/A Snow Light Snow
7:35 AM 23.0 °F - 15.8 °F 74% 30.16 in 10.0 mi North - - N/A Snow Light Snow
7:55 AM 24.8 °F - 15.8 °F 69% 30.15 in 10.0 mi North - - N/A Snow Light Snow
8:15 AM 26.6 °F - 15.8 °F 64% 30.15 in 10.0 mi North - - N/A Snow Light Snow
8:35 AM 26.6 °F - 15.8 °F 64% 30.14 in 10.0 mi North - - N/A Snow Light Snow
8:55 AM 28.4 °F - 15.8 °F 59% 30.15 in 10.0 mi North - - N/A Snow Light Snow
9:15 AM 30.2 °F 19.8 °F 15.8 °F 55% 30.13 in 10.0 mi South 13.8 mph 21.9 mph N/A Snow Light Snow
9:55 AM 32.0 °F 23.6 °F 15.8 °F 51% 30.13 in 10.0 mi South 10.4 mph 18.4 mph N/A   Clear
10:15 AM 33.8 °F 25.8 °F 15.8 °F 48% 30.13 in 10.0 mi South 10.4 mph 17.3 mph N/A   Clear
10:35 AM 35.6 °F 27.1 °F 15.8 °F 44% 30.12 in 10.0 mi South 12.7 mph 18.4 mph N/A   Clear
10:55 AM 37.4 °F 28.9 °F 17.6 °F 45% 30.11 in 10.0 mi South 13.8 mph 21.9 mph N/A   Clear
11:15 AM 39.2 °F 32.0 °F 17.6 °F 42% 30.10 in 10.0 mi South 11.5 mph 19.6 mph N/A   Clear
11:35 AM 39.2 °F 31.2 °F 17.6 °F 42% 30.09 in 10.0 mi South 13.8 mph 21.9 mph N/A   Clear
11:55 AM 41.0 °F 32.8 °F 17.6 °F 39% 30.08 in 10.0 mi South 16.1 mph 20.7 mph N/A   Clear
12:15 PM 41.0 °F 33.5 °F 15.8 °F 36% 30.07 in 10.0 mi South 13.8 mph 23.0 mph N/A   Clear
12:35 PM 41.0 °F 33.9 °F 15.8 °F 36% 30.06 in 10.0 mi South 12.7 mph 20.7 mph N/A   Clear
12:55 PM 41.0 °F 35.2 °F 15.8 °F 36% 30.04 in 10.0 mi South 9.2 mph 20.7 mph N/A   Clear
1:15 PM 42.8 °F 37.0 °F 15.8 °F 34% 30.03 in 10.0 mi South 10.4 mph - N/A   Clear
1:35 PM 42.8 °F 37.0 °F 15.8 °F 34% 30.02 in 10.0 mi SSW 10.4 mph 18.4 mph N/A   Clear
1:55 PM 44.6 °F 39.2 °F 15.8 °F 31% 30.02 in 10.0 mi SSW 10.4 mph - N/A   Clear
2:15 PM 44.6 °F 40.7 °F 17.6 °F 34% 30.01 in 10.0 mi South 6.9 mph - N/A   Clear
2:35 PM 44.6 °F 39.7 °F 17.6 °F 34% 30.00 in 10.0 mi South 9.2 mph - N/A   Clear
2:55 PM 44.6 °F 40.7 °F 17.6 °F 34% 30.01 in 10.0 mi SW 6.9 mph - N/A   Clear
3:15 PM 44.6 °F 39.7 °F 17.6 °F 34% 30.03 in 10.0 mi SW 9.2 mph - N/A   Clear
3:35 PM 44.6 °F 40.7 °F 17.6 °F 34% 30.03 in 10.0 mi WSW 6.9 mph - N/A   Clear
3:55 PM 42.8 °F 39.3 °F 19.4 °F 39% 30.04 in 10.0 mi WSW 5.8 mph - N/A   Clear
4:15 PM 41.0 °F 36.4 °F 19.4 °F 42% 30.04 in 10.0 mi WSW 6.9 mph - N/A   Clear
5:15 PM 39.2 °F 35.9 °F 19.4 °F 45% 30.05 in 10.0 mi SW 4.6 mph - N/A   Clear
5:35 PM 39.2 °F 35.9 °F 19.4 °F 45% 30.06 in 10.0 mi SW 4.6 mph - N/A   Clear
6:15 PM 37.4 °F - 19.4 °F 48% 30.06 in 10.0 mi Calm Calm - N/A   Clear
6:35 PM 35.6 °F - 19.4 °F 52% 30.07 in 10.0 mi Calm Calm - N/A   Clear
6:55 PM 35.6 °F - 19.4 °F 52% 30.08 in 10.0 mi Calm Calm - N/A   Clear
7:15 PM 35.6 °F - 19.4 °F 52% 30.08 in 10.0 mi Calm Calm - N/A   Clear
7:35 PM 33.8 °F 29.6 °F 19.4 °F 56% 30.09 in 10.0 mi SSW 4.6 mph - N/A   Partly Cloudy
7:55 PM 35.6 °F 30.7 °F 19.4 °F 52% 30.09 in 10.0 mi SSW 5.8 mph - N/A   Partly Cloudy
8:15 PM 35.6 °F 31.7 °F 19.4 °F 52% 30.09 in 10.0 mi SSW 4.6 mph - N/A   Clear
8:35 PM 35.6 °F 31.7 °F 19.4 °F 52% 30.10 in 10.0 mi SW 4.6 mph - N/A   Clear
8:55 PM 35.6 °F - 19.4 °F 52% 30.10 in 10.0 mi Calm Calm - N/A   Clear
9:15 PM 32.0 °F 28.7 °F 19.4 °F 60% 30.11 in 10.0 mi SW 3.5 mph - N/A   Scattered Clouds
9:35 PM 32.0 °F - 19.4 °F 60% 30.11 in 10.0 mi Calm Calm - N/A   Partly Cloudy
10:15 PM 32.0 °F 27.5 °F 19.4 °F 60% 30.11 in 10.0 mi SW 4.6 mph - N/A   Clear
10:35 PM 30.2 °F 25.4 °F 19.4 °F 64% 30.12 in 10.0 mi WSW 4.6 mph - N/A   Clear
11:35 PM 30.2 °F - 19.4 °F 64% 30.12 in 10.0 mi Calm Calm - N/A   Scattered Clouds